Location: ??
(35.4824°N, 139.4679°E)
Time: 08:21:05
(UTC+00:00)

PSLV R/B - Pass Details

Date: 29 October 2020
Orbit: 503 x 578 km, 97.8° (Epoch: 02 December)

Event Time Altitude Azimuth Distance (km) Brightness Sun altitude
Rises 20:23:21 0° 11° (N) 2,801 7.4 -8.5°
Reaches altitude 10° 20:25:30 10° 11° (N) 1,897 6.6 -8.0°
Maximum altitude 20:29:38 85° 283° (WNW) 583 3.9 -7.2°
Drops below altitude 10° 20:33:42 10° 195° (SSW) 1,866 6.5 -6.4°
Sets 20:35:48 0° 195° (SSW) 2,751 7.4 -6.0°
